Regional Weather Roundup
Issued by NWS

Home | Current Version | Previous Version | Graphics & Text | Print | Product List | Glossary On
Versions: 1 2 3 4 5 6 7 8 9 10 11 12 13 14 15 16 17 18 19 20 21 22 23 24 25 26 27 28 29 30 31 32 33 34 35 36 37 38 39 40 41 42 43 44 45 46 47 48 49 50
000
ASUS43 KLMK 231310
RWRKY
KENTUCKY REGIONAL WEATHER ROUNDUP
NATIONAL WEATHER SERVICE LOUISVILLE KY
800 AM EST THU NOV 23 2017

NOTE "FAIR" INDICATES FEW OR NO CLOUDS BELOW 12,000 FEET
WITH NO SIGNIFICANT WEATHER AND/OR OBSTRUCTIONS TO VISIBILITY.

KYZ001>023-026-027-061>063-070>075-231400-
WESTERN AND SOUTH CENTRAL KENTUCKY

CITY           SKY/WX    TMP DP  RH WIND       PRES   REMARKS
PADUCAH        CLEAR     22  19  89 W3        30.17F
HENDERSON      CLEAR     23  22  96 CALM      30.18S
OWENSBORO      CLEAR     26  24  92 CALM      30.18F
HOPKINSVILLE   CLOUDY    28  23  82 CALM      30.17S
BOWLING GREEN  CLOUDY    25  23  92 CALM      30.19S
GLASGOW        PTCLDY    25  25  99 CALM      30.17S
$$

KYZ024-025-028>034-038-045-046-053-231400-
NORTH CENTRAL KENTUCKY

CITY           SKY/WX    TMP DP  RH WIND       PRES   REMARKS
LOUISVILLE/SDF CLOUDY    29  25  85 CALM      30.17S
LOUISVILLE/LOU CLOUDY    26  25  96 CALM      30.18S
FORT KNOX      PTCLDY    22  20  92 CALM      30.15S
$$

KYZ035>037-039>044-047>052-055>060-089>105-231400-
NORTHEAST KENTUCKY

CITY           SKY/WX    TMP DP  RH WIND       PRES   REMARKS
LEXINGTON      CLOUDY    22  16  78 SE6       30.15F WCI  14
COVINGTON      MOCLDY    27  25  92 S3        30.15S
FRANKFORT      CLOUDY    22  18  85 CALM      30.15F
$$

KYZ054-064>069-076>088-106>120-231400-
SOUTHEAST KENTUCKY

CITY           SKY/WX    TMP DP  RH WIND       PRES   REMARKS
JACKSON        CLOUDY    26  21  81 VRB3      30.14F
LONDON         CLOUDY    25  21  85 N5        30.16S WCI  19
SOMERSET       CLOUDY    23  23 100 S3        30.18F
MIDDLESBORO    CLEAR     24  23  96 CALM      30.17S
MONTICELLO     SUNNY     20  18  92 N8        30.18F WCI  10
$$




USA.gov is the U.S. government's official web portal to all federal, state and local government web resources and services.